Notices

What's New in latest Release from April 7th, 2021:

- Updated Glossary, including Speed of Maximum Gust, and Total Hourly Precipitation

- Updated national and regional climate services offices contacts and prices information

- Addition of station inventory lists for 1981-2010, 1971-2000, and 1961-1990 Normals.

If you haven't already, please take our survey and provide feedback about our website: https://eccc.sondage-survey.ca/f/LanguageSelection.aspx?s=442ca660-fcf1-47c0-95a9-59707d6fd709

Hourly Data Report for March 08, 2017

TORONTO CITY
ONTARIO

43°40'00.000" N
79°24'00.000" W
112.50 m
6158355
71508
XTO

Download Data

Hourly Data (March 2017)
Hourly Data Report for March 8, 2017
TIME
LST
Temp Definition
°C
Dew Point Definition
°C
Rel Hum Definition
%
Precip. Amount Definition
mm

Wind Dir Definition
10's deg

Wind Spd Definition
km/h
Visibility Definition
km
Stn Press Definition
kPa
Hmdx Definition


Wind Chill Definition


Weather Definition


00:00 7.5 -0.7 56 0.0 LegendMM LegendMM   99.76     LegendNANA
01:00 7.1 -1.3 55 0.0 LegendMM LegendMM   99.79     LegendNANA
02:00 6.4 -1.8 56 0.0 LegendMM LegendMM   99.80     LegendNANA
03:00 5.4 -2.2 58 0.0 LegendMM LegendMM   99.81     LegendNANA
04:00 4.6 -2.5 60 0.0 LegendMM LegendMM   99.80     LegendNANA
05:00 3.9 -1.7 67 0.0 LegendMM LegendMM   99.77     LegendNANA
06:00 4.0 -2.5 62 0.0 LegendMM LegendMM   99.73     LegendNANA
07:00 4.1 -1.6 67 0.0 LegendMM LegendMM   99.69     LegendNANA
08:00 4.9 -1.2 65 0.0 LegendMM LegendMM   99.61     LegendNANA
09:00 6.5 -1.1 58 0.0 LegendMM LegendMM   99.47     LegendNANA
10:00 7.7 -0.4 57 0.0 LegendMM LegendMM   99.37     LegendNANA
11:00 9.2 -6.5 32 0.0 LegendMM LegendMM   99.29     LegendNANA
12:00 10.6 -5.4 32 0.0 LegendMM LegendMM   99.17     LegendNANA
13:00 9.9 -5.4 33 0.0 LegendMM LegendMM   99.11     LegendNANA
14:00 9.8 -6.8 31 0.0 LegendMM LegendMM   99.05     LegendNANA
15:00 9.8 -10.0 24 0.0 LegendMM LegendMM   99.04     LegendNANA
16:00 9.3 -7.8 29 0.0 LegendMM LegendMM   99.12     LegendNANA
17:00 8.1 -8.5 30 0.0 LegendMM LegendMM   99.22     LegendNANA
18:00 6.8 -7.4 35 0.0 LegendMM LegendMM   99.34     LegendNANA
19:00 5.5 -6.1 43 0.0 LegendMM LegendMM   99.43     LegendNANA
20:00 5.2 -6.2 44 0.0 LegendMM LegendMM   99.47     LegendNANA
21:00 5.1 -6.1 44 0.0 LegendMM LegendMM   99.57     LegendNANA
22:00 4.3 -9.1 37 0.0 LegendMM LegendMM   99.64     LegendNANA
23:00 3.6 -9.4 38 0.0 LegendMM LegendMM   99.69     LegendNANA

Notes on Data Quality.

Legend

  • E = Estimated
  • M = Missing
  • NA = Not Available*
  • [empty] = Indicates an unobserved value
Date modified: